{"data":{"norad_id":51750,"intl_designator":"2022-016AN","name":"STARLINK-3505","alt_names":[],"object_type":"PAYLOAD","status":"ACTIVE","operator":null,"country":"US","launch_date":"2022-02-21","launch_site_code":"AFETR","launch_vehicle":null,"mission":null,"orbit_class":"UNKNOWN","rcs_meters":null,"size_class":null,"mass_kg":null,"dimensions":null,"purposes":["comms"],"wikipedia_slug":null,"has_3d_model":false,"image_url":null,"decayed_at":null,"tle_current":{"epoch":"2026-09-20T02:36:56.890656Z","epoch_age_seconds":86007,"freshness":"FRESH","line1":"1 51750U 22016AN  26263.10899179  .00000631  00000+0  32085-4 0  9993","line2":"2 51750  53.1595 143.6971 0001114  93.7178 266.3951 15.31702766253225","mean_motion":15.31702766,"eccentricity":0.0001114,"inclination_deg":53.1595,"raan_deg":143.6971,"arg_perigee_deg":93.7178,"mean_anomaly_deg":266.3951,"bstar":3.2085e-5,"rev_number":25322,"period_min":94.013018188935,"perigee_km":469.96878595724,"apogee_km":471.49471391473,"semimajor_km":6848.868749936,"source":"CELESTRAK","updated_at":"2026-09-20T09:00:39.933562Z"}}}